SQ3VAS-10 Weather Reports


Display with metric or nautical units.
time (UTC)temp
F
wind
direction
speed
MPH
gust
MPH
rain 1hr
in
rain 24hr
in
rain mn
in
humidity
%
barometer
mb
20260507205947 51 0.0 0.0 0.00 0.00 0.00 74 1019.0
20260507205014 51 0.0 0.0 0.00 0.00 0.00 73 1018.9
20260507204042 51 0.0 0.0 0.00 0.00 0.00 75 1018.9
20260507203111 51 0.0 0.0 0.00 0.00 0.00 75 1018.9
20260507202138 51 0.0 0.0 0.00 0.00 0.00 76 1018.9
20260507201206 51 0.0 0.0 0.00 0.00 0.00 80 1018.9
20260507200235 52 0.0 0.0 0.00 0.00 0.00 79 1018.7
20260507195305 52 0.0 0.0 0.00 0.00 0.00 77 1018.5
20260507194331 52 0.0 0.0 0.00 0.00 0.00 77 1018.4
20260507193359 52 0.0 0.0 0.00 0.00 0.00 76 1018.4
20260507192428 52 0.0 0.0 0.00 0.00 0.00 76 1018.2
20260507191457 53 0.0 0.0 0.00 0.00 0.00 77 1018.1
20260507190524 53 0.0 0.0 0.00 0.00 0.00 75 1018.0
20260507185552 53 0.0 0.0 0.00 0.00 0.00 74 1017.9
20260507184620 53 0.0 0.0 0.00 0.00 0.00 73 1017.7
20260507183648 54 0.0 0.0 0.00 0.00 0.00 71 1017.8
20260507182717 54 0.0 0.0 0.00 0.00 0.00 69 1017.6
20260507181746 54 0.0 0.0 0.00 0.00 0.00 70 1017.7
20260507180813 55 0.0 0.0 0.00 0.00 0.00 68 1017.4
20260507175841 55 0.0 0.0 0.00 0.00 0.00 68 1017.5
20260507174909 55 0.0 0.0 0.00 0.00 0.00 68 1017.3
20260507173936 55 0.0 0.0 0.00 0.00 0.00 67 1017.2
20260507173005 55 0.0 0.0 0.00 0.00 0.00 67 1017.2
20260507172033 55 0.0 0.0 0.00 0.00 0.00 66 1017.2
20260507171101 55 0.0 0.0 0.00 0.00 0.00 66 1017.0
20260507170128 55 0.0 0.0 0.00 0.00 0.00 66 1017.1
20260507165156 55 0.0 0.0 0.00 0.00 0.00 65 1017.0
20260507164224 55 0.0 0.0 0.00 0.00 0.00 65 1017.0
20260507163252 55 0.0 0.0 0.00 0.00 0.00 65 1017.0
20260507162320 56 0.0 0.0 0.00 0.00 0.00 65 1017.0
20260507161348 55 0.0 0.0 0.00 0.00 0.00 65 1017.0
20260507160417 55 0.0 0.0 0.00 0.00 0.00 64 1017.0
20260507155444 56 0.0 0.0 0.00 0.00 0.00 64 1016.9
20260507154512 55 0.0 0.0 0.00 0.00 0.00 64 1016.9
20260507153540 55 0.0 0.0 0.00 0.00 0.00 64 1016.8
20260507152607 56 0.0 0.0 0.00 0.00 0.00 63 1016.8
20260507151635 56 0.0 0.0 0.00 0.00 0.00 64 1016.8
20260507150704 55 0.0 0.0 0.00 0.00 0.00 64 1016.7
20260507145729 56 0.0 0.0 0.00 0.00 0.00 63 1016.7
20260507144757 56 0.0 0.0 0.00 0.00 0.00 61 1016.6
20260507143825 56 0.0 0.0 0.00 0.00 0.00 61 1016.5
20260507142853 57 0.0 0.0 0.00 0.00 0.00 61 1016.4
20260507141922 57 0.0 0.0 0.00 0.00 0.00 59 1016.3
20260507140951 58 0.0 0.0 0.00 0.00 0.00 59 1016.3
20260507140016 57 0.0 0.0 0.00 0.00 0.00 60 1016.3
20260507135043 58 0.0 0.0 0.00 0.00 0.00 58 1016.3
20260507134109 57 0.0 0.0 0.00 0.00 0.00 61 1016.2
20260507133138 56 0.0 0.0 0.00 0.00 0.00 60 1016.4
20260507132206 57 0.0 0.0 0.00 0.00 0.00 59 1016.3
20260507131234 56 0.0 0.0 0.00 0.00 0.00 61 1016.3
20260507130303 57 0.0 0.0 0.00 0.00 0.00 58 1016.2
20260507125330 57 0.0 0.0 0.00 0.00 0.00 61 1016.2
20260507124358 56 0.0 0.0 0.00 0.00 0.00 62 1016.2
20260507123427 56 0.0 0.0 0.00 0.00 0.00 61 1016.1
20260507122454 58 0.0 0.0 0.00 0.00 0.00 61 1016.0
20260507121521 57 0.0 0.0 0.00 0.00 0.00 61 1016.0
20260507120548 56 0.0 0.0 0.00 0.00 0.00 62 1016.0
20260507115615 56 0.0 0.0 0.00 0.00 0.00 63 1015.9
20260507114644 56 0.0 0.0 0.00 0.00 0.00 64 1015.9
20260507113712 56 0.0 0.0 0.00 0.00 0.00 63 1015.7
20260507112739 56 0.0 0.0 0.00 0.00 0.00 64 1015.8
20260507111806 55 0.0 0.0 0.00 0.00 0.00 65 1015.7
20260507110834 56 0.0 0.0 0.00 0.00 0.00 65 1015.7
20260507105901 54 0.0 0.0 0.00 0.00 0.00 66 1015.7
20260507104930 54 0.0 0.0 0.00 0.00 0.00 67 1015.6
20260507103957 54 0.0 0.0 0.00 0.00 0.00 65 1015.6
20260507103025 55 0.0 0.0 0.00 0.00 0.00 64 1015.5
20260507102053 54 0.0 0.0 0.00 0.00 0.00 67 1015.4
20260507101120 53 0.0 0.0 0.00 0.00 0.00 67 1015.4
20260507100149 53 0.0 0.0 0.00 0.00 0.00 67 1015.4
20260507095216 54 0.0 0.0 0.00 0.00 0.00 68 1015.2
20260507094245 54 0.0 0.0 0.00 0.00 0.00 66 1015.1
20260507093310 54 0.0 0.0 0.00 0.00 0.00 67 1015.0
20260507092338 54 0.0 0.0 0.00 0.00 0.00 68 1015.0
20260507091406 53 0.0 0.0 0.00 0.00 0.00 69 1014.9
20260507090434 52 0.0 0.0 0.00 0.00 0.00 70 1014.6
20260507085501 53 0.0 0.0 0.00 0.00 0.00 70 1014.6
20260507084529 53 0.0 0.0 0.00 0.00 0.00 70 1014.5
20260507083557 52 0.0 0.0 0.00 0.00 0.00 71 1014.5
20260507082625 52 0.0 0.0 0.00 0.00 0.00 71 1014.3
20260507081654 52 0.0 0.0 0.00 0.00 0.00 72 1014.4
20260507080719 52 0.0 0.0 0.00 0.00 0.00 72 1014.2
20260507074816 50 0.0 0.0 0.00 0.00 0.00 74 1014.0
20260507073843 50 0.0 0.0 0.00 0.00 0.00 75 1013.9
20260507072911 50 0.0 0.0 0.00 0.00 0.00 76 1013.9
20260507071939 50 0.0 0.0 0.00 0.00 0.00 76 1013.8
20260507071006 50 0.0 0.0 0.00 0.00 0.00 77 1013.8
20260507070034 50 0.0 0.0 0.00 0.00 0.00 77 1013.7
20260507065103 51 0.0 0.0 0.00 0.00 0.00 77 1013.7
20260507064129 51 0.0 0.0 0.00 0.00 0.00 76 1013.5
20260507063157 51 0.0 0.0 0.00 0.00 0.00 75 1013.5
20260507062225 51 0.0 0.0 0.00 0.00 0.00 76 1013.4
20260507061253 51 0.0 0.0 0.00 0.00 0.00 76 1013.2
20260507060321 50 0.0 0.0 0.00 0.00 0.00 77 1013.2
20260507055348 50 0.0 0.0 0.00 0.00 0.00 78 1013.2
20260507054417 50 0.0 0.0 0.00 0.00 0.00 77 1012.9
20260507053445 50 0.0 0.0 0.00 0.00 0.00 78 1013.0
20260507052512 50 0.0 0.0 0.00 0.00 0.00 77 1012.9
20260507051540 50 0.0 0.0 0.00 0.00 0.00 80 1012.9
20260507045636 49 0.0 0.0 0.00 0.00 0.00 80 1012.8
20260507044704 49 0.0 0.0 0.00 0.00 0.00 81 1012.7
20260507043732 49 0.0 0.0 0.00 0.00 0.00 81 1012.7
20260507042800 49 0.0 0.0 0.00 0.00 0.00 81 1012.6
20260507041828 49 0.0 0.0 0.00 0.00 0.00 82 1012.4
20260507040856 49 0.0 0.0 0.00 0.00 0.00 82 1012.4
20260507034952 49 0.0 0.0 0.00 0.00 0.00 83 1012.1
20260507034020 49 0.0 0.0 0.00 0.00 0.00 82 1012.0
20260507033048 48 0.0 0.0 0.00 0.00 0.00 84 1011.8
20260507032117 48 0.0 0.0 0.00 0.00 0.00 84 1011.7
20260507031145 48 0.0 0.0 0.00 0.00 0.00 85 1011.7
20260507030213 48 0.0 0.0 0.00 0.00 0.00 84 1011.6
20260507025241 49 0.0 0.0 0.00 0.00 0.00 83 1011.7
20260507024309 48 0.0 0.0 0.00 0.00 0.00 84 1011.5
20260507023337 48 0.0 0.0 0.00 0.00 0.00 85 1011.5
20260507022406 48 0.0 0.0 0.00 0.00 0.00 85 1011.5
20260507021434 48 0.0 0.0 0.00 0.00 0.00 85 1011.5
20260507020502 48 0.0 0.0 0.00 0.00 0.00 85 1011.5
20260507015530 48 0.0 0.0 0.00 0.00 0.00 85 1011.3
20260507014558 48 0.0 0.0 0.00 0.00 0.00 84 1011.3
20260507013627 48 0.0 0.0 0.00 0.00 0.00 85 1011.3
20260507012655 48 0.0 0.0 0.00 0.00 0.00 85 1011.3
20260507011723 48 0.0 0.0 0.00 0.00 0.00 86 1011.3
20260507010752 48 0.0 0.0 0.00 0.00 0.00 85 1011.2
20260507005820 48 0.0 0.0 0.00 0.00 0.00 85 1010.9
20260507004848 48 0.0 0.0 0.00 0.00 0.00 85 1010.9
20260507003916 48 0.0 0.0 0.00 0.00 0.00 85 1011.0
20260507002945 48 0.0 0.0 0.00 0.00 0.00 86 1010.8
20260507002012 49 0.0 0.0 0.00 0.00 0.00 84 1010.8
20260507001040 49 0.0 0.0 0.00 0.00 0.00 85 1011.0
20260507000108 49 0.0 0.0 0.00 0.00 0.00 84 1011.0
20260506235136 49 0.0 0.0 0.00 0.00 0.00 85 1010.9
20260506234204 49 0.0 0.0 0.00 0.00 0.00 85 1010.9
20260506233232 49 0.0 0.0 0.00 0.00 0.00 84 1010.9
20260506232300 49 0.0 0.0 0.00 0.00 0.00 85 1010.7
20260506231328 49 0.0 0.0 0.00 0.00 0.00 85 1010.8
20260506230356 49 0.0 0.0 0.00 0.00 0.00 86 1010.6
20260506225425 49 0.0 0.0 0.00 0.00 0.00 84 1010.4
20260506224452 49 0.0 0.0 0.00 0.00 0.00 85 1010.4
20260506223520 49 0.0 0.0 0.00 0.00 0.00 83 1010.4
20260506222547 49 0.0 0.0 0.00 0.00 0.00 83 1010.4
20260506221615 49 0.0 0.0 0.00 0.00 0.00 84 1010.6
20260506220643 49 0.0 0.0 0.00 0.00 0.00 84 1010.6
20260506215712 49 0.0 0.0 0.00 0.00 0.00 84 1010.5
20260506214740 49 0.0 0.0 0.00 0.00 0.00 84 1010.6
20260506213808 50 0.0 0.0 0.00 0.00 0.00 84 1010.4
20260506212836 49 0.0 0.0 0.00 0.00 0.00 85 1010.4
20260506211904 49 0.0 0.0 0.00 0.00 0.00 85 1010.2
20260506210932 49 0.0 0.0 0.00 0.00 0.00 84 1010.1